Regional Weather Roundup
Issued by NWS

Home | Current Version | Previous Version | Graphics & Text | Print | Product List | Glossary On
Versions: 1 2 3 4 5 6 7 8 9 10 11 12 13 14 15 16 17 18 19 20 21 22 23 24 25 26 27 28 29 30 31 32 33 34 35 36 37 38 39 40 41 42 43 44 45 46 47 48 49 50
000
ASUS45 KSLC 311210
RWRUT

UTAH REGIONAL WEATHER ROUNDUP
NATIONAL WEATHER SERVICE SALT LAKE CITY UT
600 AM MDT MON AUG 31 2015

UTZ001>011-023>025-311300-

NORTHERN UTAH

CITY           SKY/WX    TMP DP  RH WIND       PRES   REMARKS
BRIGHAM CITY   PTCLDY    59  35  40 NW7       30.06S
HILL AFB       CLOUDY    67  38  33 NW10G17   30.05F
LOGAN          CLEAR     50  41  71 SE5       30.09S
OGDEN          CLOUDY    62  38  40 NW3       30.04F
PROVO AIRPORT  PTCLDY    59  46  63 S6        30.07R
SALT LAKE CITY MOCLDY    67  45  45 S10       30.02F
VERNAL         PTCLDY    58  50  75 W6        30.13R
WENDOVER       CLEAR     64  28  25 S5        30.08R
HEBER CITY     PTCLDY    50  45  81 E5        30.15R
WEST JORDAN    CLEAR     64  37  36 CALM      30.07F

$$

UTZ012>022-026-027-311300-

SOUTHERN/CENTRAL UTAH

CITY           SKY/WX    TMP DP  RH WIND       PRES   REMARKS
BLANDING       CLOUDY    60  54  82 N3        30.26S
BRYCE CANYON   CLEAR     46  43  89 W9        30.29S
CEDAR CITY     CLEAR     63  48  58 SW6       30.12R
DELTA          PTCLDY    62  38  40 SE5       30.05R
HANKSVILLE     PTCLDY    64  55  72 CALM      30.09R
MILFORD        CLEAR     60  44  55 N5        30.07R
MOAB/CYNLANDS  MOCLDY    64  58  80 SE8       30.08R
PRICE          MOCLDY    56  50  80 N7        30.17R
ST GEORGE      MOSUNNY   75  54  46 E7        29.98R
KANAB          PTCLDY    61  57  88 N8        30.18R

$$

REGIONAL REPORTS     COLORADO/ARIZONA

CITY           SKY/WX    TMP DP  RH WIND       PRES   REMARKS
CRAIG, CO      CLOUDY    59  49  69 CALM      30.21S
GRAND JUNCTION CLOUDY    62  58  86 E8        30.12R
RIFLE          LGT RAIN  60  56  86 E6        30.18S
MONTROSE       MOCLDY    58  55  90 SE3       30.20S
CORTEZ         CLEAR     56  50  80 CALM      30.21R
PAGE, AZ       PTCLDY    66  59  78 SW3       30.09R
GRAND CANYON     N/A    N/A N/A N/A MISG      30.24R
KINGMAN        MOCLDY    75  43  31 SE10      29.96R
FLAGSTAFF      MOCLDY    51  51 100 CALM      30.28R

$$

REGIONAL REPORTS    NEVADA/IDAHO/WYOMING

CITY           SKY/WX    TMP DP  RH WIND       PRES   REMARKS
LAS VEGAS, NV  PTCLDY    81  43  26 S3        29.80R
ELY            CLEAR     44  27  51 S10       30.17R
ELKO           PTCLDY    48  19  31 CALM      30.13R
POCATELLO, ID  CLEAR     50  31  48 SW7       30.10S
BURLEY         CLEAR     50  39  66 S5        30.10R
EVANSTON, WY   PTCLDY    52  38  58 N5        30.23R
ROCK SPRINGS   PTCLDY    54  48  80 CALM      30.19R
KEMMERER       PTCLDY    43  34  70 NE3       30.22S

$$


USA.gov is the U.S. government's official web portal to all federal, state and local government web resources and services.